Regional Weather Roundup
Issued by NWS

Home | Current Version | Previous Version | Graphics & Text | Print | Product List | Glossary On
Versions: 1 2 3 4 5 6 7 8 9 10 11 12 13 14 15 16 17 18 19 20 21 22 23 24 25 26 27 28 29 30 31 32 33 34 35 36 37 38 39 40 41 42 43 44 45 46 47 48 49 50
101
ASUS43 KMKX 132059
RWRWI

WISCONSIN REGIONAL WEATHER ROUNDUP
NATIONAL WEATHER SERVICE MILWAUKEE/SULLIVAN WI
300 PM CST SAT FEB 13 2016

NOTE: "FAIR" INDICATES FEW OR NO CLOUDS BELOW 12,000 FEET WITH NO
SIGNIFICANT WEATHER AND/OR OBSTRUCTIONS TO VISIBILITY.

WIZ001-002-006>008-014>016-023>028-132200-
NORTHWEST WISCONSIN

CITY           SKY/WX    TMP DP  RH WIND       PRES   REMARKS
SUPERIOR ARPT  SUNNY     10 -11  37 S7        30.49F WCI  -1
ASHLAND        SUNNY      9 -12  38 SW6       30.47F WCI  -1
HAYWARD        SUNNY      7 -15  36 S7        30.44F WCI  -5
SIREN          SUNNY      8 -14  36 SW3       30.49F
CUMBERLAND     SUNNY      5 -13  43 S5        30.47F WCI  -4
RICE LAKE      SUNNY      6 -12  43 CALM      30.51F
CHETEK         SUNNY      7 -13  40 CALM      30.50F
LADYSMITH      SUNNY      9 -14  34 CALM      30.48F
EAU CLAIRE     NOT AVBL
MENOMONIE      SUNNY     19 -10  26 SE3       30.52F
NEW RICHMOND   SUNNY      7 -12  41 SE3       30.50F
OSCEOLA        SUNNY      9 -10  40 SE5       30.53F WCI   1
$$

WIZ003>005-009-010-017-018-132200-
NORTH CENTRAL WISCONSIN

CITY           SKY/WX    TMP DP  RH WIND       PRES   REMARKS
MANITOWISH WTR SUNNY      7  -8  51 W8        30.38F WCI  -6
ARBOR VITAE    SUNNY      9  -6  50 N5        30.39F WCI   1
WOODRUFF       SUNNY      9  -6  50 N5        30.39F WCI   1
RHINELANDER    SUNNY      9  -6  50 W9        30.39F WCI  -4
EAGLE RIVER    SUNNY      9  -6  51 NW7       30.37F WCI  -3
LAND O LAKES   MOSUNNY    9  -4  55 W6        30.38F WCI  -1
PHILLIPS       SUNNY      8 -11  42 W5        30.41F WCI   0
TOMAHAWK       SUNNY      9 -10  40 W3        30.42F
MEDFORD        SUNNY      7 -10  44 W10       30.42F WCI  -7
MERRILL        SUNNY     11 -10  39 W3        30.43F
$$

WIZ029-030-035-036-043>047-132200-
CENTRAL WISCONSIN

CITY           SKY/WX    TMP DP  RH WIND       PRES   REMARKS
WAUSAU         SUNNY      7  -8  50 W9        30.44F WCI  -7
MOSINEE        SUNNY      7  -8  51 W6        30.47F WCI  -3
MARSHFIELD     SUNNY      7 -11  43 NW8       30.45F WCI  -6
STEVENS POINT  SUNNY      6 -10  49 W8        30.48S WCI  -7
WAUPACA        SUNNY     14  -8  36 W9        30.50S WCI   2
WAUTOMA        NOT AVBL
WISC RAPIDS    SUNNY     10 -12  36 NW7       30.50F WCI  -1
CAMP DOUGLAS   NOT AVBL
$$

WIZ011>013-019>022-031-037>040-048>050-132200-
NORTHEAST WISCONSIN

CITY           SKY/WX    TMP DP  RH WIND       PRES   REMARKS
ANTIGO         SUNNY      9  -6  50 W9        30.40F WCI  -4
SHAWANO        SUNNY     15  -6  38 W9        30.47F WCI   3
OCONTO         SUNNY     13  -6  42 W8        30.48S WCI   2
STURGEON BAY   SUNNY     10  -6  48 W7        30.49R WCI   0
GREEN BAY      SUNNY     10  -6  48 SW7       30.50S WCI  -1
MANITOWOC      NOT AVBL
APPLETON       MOSUNNY   10  -9  40 SW10      30.47S WCI  -3
CLINTONVILLE   SUNNY     12  -8  40 W10       30.48S WCI  -1
OSHKOSH        SUNNY     10  -6  48 W5        30.50F WCI   2
$$

WIZ032>034-041-042-053>061-132200-
SOUTHWEST WISCONSIN

CITY           SKY/WX    TMP DP  RH WIND       PRES   REMARKS
LA CROSSE      SUNNY     10 -10  40 CALM      30.53F
SPARTA         SUNNY     11  -9  39 SW3       30.53F
VIROQUA        SUNNY     10 -10  40 CALM      30.47F
BOSCOBEL       SUNNY     15 -11  30 CALM      30.54F
PRAIRIE DU CHI SUNNY     13 -11  34 CALM      30.55F
PLATTEVILLE    SUNNY     10  -6  50 CALM      30.53F
$$

WIZ056-057-062-063-064-067-068-132200-
SOUTH CENTRAL WISCONSIN

CITY           SKY/WX    TMP DP  RH WIND       PRES   REMARKS
REEDSBURG      SUNNY      9 -10  42 SW6       30.51F WCI  -1
BARABOO/DELLS  SUNNY      9 -10  40 W7        30.51F WCI  -2
LONE ROCK      NOT AVBL
MINERAL POINT  SUNNY     10  -8  44 W5        30.50F WCI   2
MADISON        MOSUNNY   10  -8  44 VRB6      30.52F WCI   0
MIDDLETON      SUNNY     13  -8  39 W3        30.53F
WATERTOWN      SUNNY      9  -6  50 W7        30.52F WCI  -2
MONROE         SUNNY     14  -6  41 N6        30.51F WCI   5
JANESVILLE     SUNNY     14  -6  41 NW6       30.53F WCI   5
$$

WIZ051-052-058>065-066-070>072-132200-
SOUTHEAST WISCONSIN

CITY           SKY/WX    TMP DP  RH WIND       PRES   REMARKS
MILWAUKEE      MOSUNNY   12  -9  38 NW12      30.52F WCI  -2
WAUKESHA       SUNNY      9  -8  47 W13       30.51F WCI  -7
MILWAUKEE/TIMM SUNNY     10  -9  40 NW12G17   30.52F WCI  -4
RACINE         SUNNY     13  -9  37 NW10      30.53F WCI   0
BURLINGTON     SUNNY     11  -8  40 NW8       30.52F WCI   0
KENOSHA        SUNNY     14  -4  44 NW8       30.51F WCI   3
FOND DU LAC    SUNNY      9  -7  48 W8        30.51F WCI  -3
SHEBOYGAN      SUNNY      9  -5  53 W10       30.51S WCI  -5
WEST BEND      SUNNY     10  -8  44 CALM      30.50S
JUNEAU         SUNNY      8  -8  48 W8        30.52F WCI  -5
$$

LSZ147-162-132200-
LAKE SUPERIOR

STATION/POSITION TIME  TEMP    WIND        PRES    WAVE
                       AIR SEA DIR/SP/G            HT/PER
                 (UTC) (F)     (DEG/KT/KT) (MB)    (FT/S)
DEVILS ISLAND    2000    4     270/  8/ 10 1035.3F
SAXON HARBOR     2040   11                 1032.5F
$$

LMZ867-665-643>646-132200-
LAKE MICHIGAN

STATION/POSITION TIME  TEMP    WIND        PRES    WAVE
                       AIR SEA DIR/SP/G            HT/PER
                 (UTC) (F)     (DEG/KT/KT) (MB)    (FT/S)
CHAMBERS ISLAND  2000   15     310/  7/ 10 1031.5F
SISTER BAY       1934   15     330/ 14/ 16   N/A
ALGOMA LAKESHORE 1941          330/  7/ 12   N/A
KEWAUNEE LAKESHO 2000    9     300/  6/ 11 1031.5F
SHEBOYGAN LAKESH 2000    8     280/ 11/ 14 1035.1F
PORT WASHINGTON  2000   11     280/  8/ 12 1034.5F
MILWAUKEE LAKESH 2010   11     320/  7/  9   N/A
KENOSHA   LAKESH 2000   13     280/ 10/ 14 1033.9F
$$

TC  - TEMPERATURE IN CELSIUS
VSB - VISIBILITY IN STATUTE MILES
WCI - WIND CHILL INDEX
HX  - HEAT INDEX





USA.gov is the U.S. government's official web portal to all federal, state and local government web resources and services.